When you browse on this site, cookies collect data to enhance your experience and personalize the content and advertising you see.
Visit our Privacy Policy to learn more. By continuing to use the site, you agree to this use of cookies and data.
  • în România
  • Lista ţărilor
  • Pe 7 zile
  • Temperatura apei
  • Meteo pe hartă
  • Widget-uri
  • user-avatar
    Intrare

    Meteo pe oră la Arusha

    Astăzi, 6 Aprilie, Luni

    Timp Temperatura Precipitaţii Vânt Presiune Umiditate
    00:00 +19°C° 0.4 mm 2 m/s 643 mmHg 93%
    01:00 +20°C° 0.4 mm 1 m/s 643 mmHg 93%
    02:00 +20°C° 0 mm 1 m/s 642 mmHg 93%
    03:00 +20°C° 0.3 mm 1 m/s 642 mmHg 93%
    04:00 +20°C° 0.3 mm 1 m/s 643 mmHg 93%
    05:00 +20°C° 0.3 mm 1 m/s 643 mmHg 93%
    06:00 +20°C° 0.1 mm 1 m/s 643 mmHg 90%
    07:00 +21°C° 0.1 mm 1 m/s 644 mmHg 87%
    08:00 +22°C° 0.1 mm 1 m/s 645 mmHg 84%
    09:00 +23°C° 0.3 mm 1 m/s 645 mmHg 79%
    10:00 +24°C° 0.3 mm 2 m/s 645 mmHg 75%
    11:00 +25°C° 0.3 mm 2 m/s 645 mmHg 70%
    12:00 +26°C° 1 mm 2 m/s 644 mmHg 69%
    13:00 +26°C° 1 mm 2 m/s 643 mmHg 69%
    14:00 +26°C° 1 mm 2 m/s 642 mmHg 68%
    15:00 +25°C° 1.6 mm 2 m/s 642 mmHg 73%
    16:00 +24°C° 1.6 mm 2 m/s 642 mmHg 77%
    17:00 +23°C° 1.6 mm 2 m/s 642 mmHg 82%
    18:00 +23°C° 0.2 mm 2 m/s 642 mmHg 84%
    19:00 +21°C° 0.2 mm 2 m/s 642 mmHg 86%
    20:00 +20°C° 0.2 mm 2 m/s 643 mmHg 89%
    21:00 +19°C° 0 mm 2 m/s 643 mmHg 90%
    22:00 +19°C° 0 mm 2 m/s 643 mmHg 91%
    23:00 +19°C° 0 mm 2 m/s 643 mmHg 92%

    Mâine, 7 Aprilie, Marţi

    Timp Temperatura Precipitaţii Vânt Presiune Umiditate
    00:00 +19°C° 0 mm 2 m/s 643 mmHg 92%
    01:00 +20°C° 0 mm 1 m/s 642 mmHg 92%
    02:00 +19°C° 0 mm 1 m/s 642 mmHg 92%
    03:00 +19°C° 0 mm 1 m/s 642 mmHg 92%
    04:00 +19°C° 0 mm 1 m/s 642 mmHg 93%
    05:00 +19°C° 0 mm 1 m/s 642 mmHg 93%
    06:00 +20°C° 0 mm 1 m/s 643 mmHg 89%
    07:00 +21°C° 0 mm 1 m/s 644 mmHg 85%
    08:00 +21°C° 0 mm 2 m/s 645 mmHg 81%
    09:00 +24°C° 0.2 mm 2 m/s 645 mmHg 75%
    10:00 +25°C° 0.2 mm 2 m/s 644 mmHg 70%
    11:00 +26°C° 0.2 mm 2 m/s 644 mmHg 65%
    12:00 +26°C° 1.4 mm 2 m/s 644 mmHg 65%
    13:00 +27°C° 1.4 mm 2 m/s 643 mmHg 65%
    14:00 +27°C° 1.4 mm 2 m/s 642 mmHg 65%
    15:00 +26°C° 1.4 mm 2 m/s 642 mmHg 71%
    16:00 +25°C° 1.4 mm 3 m/s 642 mmHg 76%
    17:00 +24°C° 1.4 mm 3 m/s 641 mmHg 81%
    18:00 +23°C° 0.6 mm 2 m/s 642 mmHg 84%
    19:00 +21°C° 0.6 mm 2 m/s 642 mmHg 86%
    20:00 +20°C° 0.6 mm 2 m/s 643 mmHg 89%
    21:00 +20°C° 0.5 mm 2 m/s 643 mmHg 90%
    22:00 +19°C° 0.5 mm 2 m/s 643 mmHg 91%
    23:00 +19°C° 0.5 mm 2 m/s 643 mmHg 92%

    Poimâine, 8 Aprilie, Miercuri

    Timp Temperatura Precipitaţii Vânt Presiune Umiditate
    00:00 +20°C° 0.8 mm 1 m/s 643 mmHg 93%
    01:00 +20°C° 0.8 mm 1 m/s 642 mmHg 94%
    02:00 +20°C° 0.8 mm 1 m/s 642 mmHg 95%
    03:00 +20°C° 0.3 mm 1 m/s 642 mmHg 94%
    04:00 +19°C° 0.3 mm 1 m/s 642 mmHg 94%
    05:00 +19°C° 0.3 mm 1 m/s 642 mmHg 94%
    06:00 +20°C° 0.2 mm 1 m/s 643 mmHg 91%
    07:00 +21°C° 0.2 mm 1 m/s 644 mmHg 88%
    08:00 +21°C° 0.2 mm 2 m/s 645 mmHg 85%
    09:00 +23°C° 1.2 mm 2 m/s 645 mmHg 84%
    10:00 +23°C° 1.2 mm 2 m/s 644 mmHg 83%
    11:00 +23°C° 1.2 mm 2 m/s 644 mmHg 82%
    12:00 +24°C° 1.4 mm 2 m/s 643 mmHg 79%
    13:00 +24°C° 1.4 mm 2 m/s 643 mmHg 77%
    14:00 +25°C° 1.4 mm 2 m/s 642 mmHg 74%
    15:00 +24°C° 2 mm 2 m/s 642 mmHg 79%
    16:00 +23°C° 2 mm 2 m/s 642 mmHg 83%
    17:00 +21°C° 2 mm 2 m/s 642 mmHg 88%
    18:00 +21°C° 1.8 mm 2 m/s 642 mmHg 90%
    19:00 +20°C° 1.8 mm 2 m/s 643 mmHg 92%
    20:00 +21°C° 1.8 mm 1 m/s 643 mmHg 93%
    21:00 +20°C° 0.7 mm 1 m/s 643 mmHg 94%
    22:00 +20°C° 0.7 mm 1 m/s 643 mmHg 94%
    23:00 +20°C° 0.7 mm 1 m/s 643 mmHg 95%

    9 Aprilie, Joi

    Timp Temperatura Precipitaţii Vânt Presiune Umiditate
    00:00 +20°C° 0.3 mm 1 m/s 643 mmHg 95%
    01:00 +20°C° 0.3 mm 1 m/s 643 mmHg 95%
    02:00 +20°C° 0.3 mm 1 m/s 642 mmHg 95%
    03:00 +18°C° 0.2 mm 0 m/s 642 mmHg 95%
    04:00 +18°C° 0.2 mm 0 m/s 643 mmHg 95%
    05:00 +18°C° 0.2 mm 0 m/s 643 mmHg 95%
    06:00 +20°C° 0.4 mm 1 m/s 644 mmHg 91%
    07:00 +21°C° 0.4 mm 1 m/s 644 mmHg 87%
    08:00 +22°C° 0.4 mm 1 m/s 645 mmHg 84%
    09:00 +23°C° 1.3 mm 1 m/s 645 mmHg 81%
    10:00 +24°C° 1.3 mm 1 m/s 645 mmHg 78%
    11:00 +25°C° 1.3 mm 2 m/s 644 mmHg 76%
    12:00 +24°C° 2.5 mm 2 m/s 644 mmHg 78%
    13:00 +24°C° 2.5 mm 2 m/s 643 mmHg 80%
    14:00 +24°C° 2.5 mm 3 m/s 642 mmHg 82%
    15:00 +23°C° 1.7 mm 2 m/s 642 mmHg 85%
    16:00 +21°C° 1.7 mm 2 m/s 642 mmHg 88%
    17:00 +20°C° 1.7 mm 2 m/s 642 mmHg 91%
    18:00 +20°C° 1.4 mm 2 m/s 642 mmHg 92%
    19:00 +20°C° 1.4 mm 2 m/s 643 mmHg 92%
    20:00 +19°C° 1.4 mm 2 m/s 643 mmHg 93%
    21:00 +19°C° 0.6 mm 2 m/s 643 mmHg 93%
    22:00 +19°C° 0.6 mm 2 m/s 643 mmHg 94%
    23:00 +19°C° 0.6 mm 2 m/s 643 mmHg 95%

    10 Aprilie, Vineri

    Timp Temperatura Precipitaţii Vânt Presiune Umiditate
    00:00 +19°C° 0.1 mm 2 m/s 643 mmHg 95%
    01:00 +18°C° 0.1 mm 2 m/s 642 mmHg 95%
    02:00 +18°C° 0.1 mm 2 m/s 642 mmHg 95%
    03:00 +18°C° 0.1 mm 2 m/s 642 mmHg 95%
    04:00 +19°C° 0.1 mm 1 m/s 642 mmHg 95%
    05:00 +18°C° 0.1 mm 1 m/s 642 mmHg 95%
    06:00 +19°C° 0 mm 1 m/s 643 mmHg 92%
    07:00 +19°C° 0 mm 2 m/s 644 mmHg 88%
    08:00 +20°C° 0 mm 2 m/s 644 mmHg 85%
    09:00 +21°C° 0.1 mm 2 m/s 644 mmHg 80%
    10:00 +23°C° 0.1 mm 2 m/s 644 mmHg 75%
    11:00 +24°C° 0.1 mm 2 m/s 644 mmHg 70%
    12:00 +25°C° 0.2 mm 2 m/s 644 mmHg 70%
    13:00 +25°C° 0.2 mm 3 m/s 643 mmHg 70%
    14:00 +25°C° 0.2 mm 3 m/s 642 mmHg 70%
    15:00 +24°C° 0.2 mm 3 m/s 642 mmHg 73%
    16:00 +22°C° 0.2 mm 3 m/s 642 mmHg 77%
    17:00 +22°C° 0.2 mm 3 m/s 642 mmHg 80%
    18:00 +21°C° 0.1 mm 3 m/s 642 mmHg 84%
    19:00 +20°C° 0.1 mm 3 m/s 642 mmHg 88%
    20:00 +19°C° 0.1 mm 3 m/s 643 mmHg 92%
    21:00 +19°C° 0 mm 3 m/s 643 mmHg 92%
    22:00 +18°C° 0 mm 2 m/s 643 mmHg 92%
    23:00 +18°C° 0 mm 2 m/s 643 mmHg 92%

    11 Aprilie, Sâmbătă

    Timp Temperatura Precipitaţii Vânt Presiune Umiditate
    00:00 +18°C° 0.1 mm 2 m/s 642 mmHg 93%
    01:00 +18°C° 0.1 mm 2 m/s 642 mmHg 94%
    02:00 +18°C° 0.1 mm 2 m/s 642 mmHg 95%
    03:00 +19°C° 0.1 mm 1 m/s 642 mmHg 95%
    04:00 +19°C° 0.1 mm 1 m/s 642 mmHg 95%
    05:00 +19°C° 0.1 mm 1 m/s 642 mmHg 95%
    06:00 +19°C° 0.1 mm 1 m/s 643 mmHg 92%
    07:00 +19°C° 0.1 mm 2 m/s 643 mmHg 88%
    08:00 +20°C° 0.1 mm 2 m/s 644 mmHg 85%
    09:00 +21°C° 0 mm 2 m/s 644 mmHg 81%
    10:00 +23°C° 0 mm 2 m/s 644 mmHg 76%
    11:00 +23°C° 0 mm 2 m/s 644 mmHg 72%
    12:00 +24°C° 0 mm 2 m/s 643 mmHg 70%
    13:00 +24°C° 0 mm 2 m/s 642 mmHg 68%
    14:00 +25°C° 0 mm 2 m/s 642 mmHg 66%
    15:00 +24°C° 0 mm 2 m/s 641 mmHg 70%
    16:00 +24°C° 0 mm 2 m/s 641 mmHg 73%
    17:00 +23°C° 0 mm 2 m/s 641 mmHg 76%
    18:00 +21°C° 0 mm 2 m/s 641 mmHg 79%
    19:00 +20°C° 0 mm 2 m/s 642 mmHg 82%
    20:00 +19°C° 0 mm 2 m/s 642 mmHg 85%
    21:00 +19°C° 0 mm 2 m/s 642 mmHg 88%
    22:00 +19°C° 0 mm 2 m/s 642 mmHg 91%
    23:00 +18°C° 0 mm 3 m/s 642 mmHg 94%
    Arată mai mult